When you browse on this site, cookies collect data to enhance your experience and personalize the content and advertising you see.
Visit our Privacy Policy to learn more. By continuing to use the site, you agree to this use of cookies and data.
  • In Czech Republic
  • List of Countries
  • For 7 days
  • Water Temperature
  • Weather Map
  • Weather Widgets
  • user-avatar
    Login

    Hourly Weather Caracas

    Today, 24 February, Monday

    Time Temperature Precipitation Wind Pressure Humidity
    00:00 +18°C° 0 mm 1 mps 649 mmHg 94%
    01:00 +16°C° 0 mm 1 mps 649 mmHg 94%
    02:00 +16°C° 0 mm 1 mps 648 mmHg 94%
    03:00 +16°C° 0 mm 1 mps 648 mmHg 94%
    04:00 +15°C° 0 mm 1 mps 648 mmHg 93%
    05:00 +15°C° 0 mm 1 mps 648 mmHg 93%
    06:00 +16°C° 0 mm 1 mps 648 mmHg 91%
    07:00 +16°C° 0 mm 1 mps 649 mmHg 88%
    08:00 +18°C° 0 mm 1 mps 650 mmHg 85%
    09:00 +19°C° 0 mm 2 mps 651 mmHg 76%
    10:00 +23°C° 0 mm 2 mps 651 mmHg 67%
    11:00 +25°C° 0 mm 2 mps 652 mmHg 57%
    12:00 +25°C° 0.1 mm 2 mps 651 mmHg 60%
    13:00 +25°C° 0.1 mm 2 mps 651 mmHg 63%
    14:00 +24°C° 0.1 mm 3 mps 650 mmHg 66%
    15:00 +23°C° 0.2 mm 2 mps 649 mmHg 70%
    16:00 +21°C° 0.2 mm 2 mps 649 mmHg 74%
    17:00 +21°C° 0.2 mm 2 mps 648 mmHg 78%
    18:00 +19°C° 0 mm 2 mps 648 mmHg 82%
    19:00 +18°C° 0 mm 2 mps 648 mmHg 86%
    20:00 +17°C° 0 mm 2 mps 648 mmHg 89%
    21:00 +17°C° 0 mm 2 mps 649 mmHg 91%
    22:00 +16°C° 0 mm 1 mps 649 mmHg 92%
    23:00 +16°C° 0 mm 1 mps 649 mmHg 93%

    Tomorrow, 25 February, Tuesday

    Time Temperature Precipitation Wind Pressure Humidity
    00:00 +15°C° 0 mm 1 mps 649 mmHg 93%
    01:00 +15°C° 0 mm 1 mps 648 mmHg 93%
    02:00 +15°C° 0 mm 1 mps 648 mmHg 93%
    03:00 +15°C° 0 mm 1 mps 648 mmHg 93%
    04:00 +15°C° 0 mm 1 mps 648 mmHg 93%
    05:00 +15°C° 0 mm 1 mps 648 mmHg 93%
    06:00 +15°C° 0 mm 1 mps 648 mmHg 90%
    07:00 +16°C° 0 mm 1 mps 649 mmHg 87%
    08:00 +18°C° 0 mm 1 mps 650 mmHg 83%
    09:00 +20°C° 0 mm 2 mps 650 mmHg 72%
    10:00 +23°C° 0 mm 2 mps 651 mmHg 62%
    11:00 +26°C° 0 mm 2 mps 652 mmHg 51%
    12:00 +26°C° 0 mm 3 mps 651 mmHg 50%
    13:00 +27°C° 0 mm 3 mps 651 mmHg 49%
    14:00 +27°C° 0 mm 3 mps 650 mmHg 49%
    15:00 +26°C° 0 mm 3 mps 650 mmHg 54%
    16:00 +24°C° 0 mm 3 mps 649 mmHg 59%
    17:00 +22°C° 0 mm 3 mps 648 mmHg 64%
    18:00 +20°C° 0 mm 2 mps 648 mmHg 71%
    19:00 +19°C° 0 mm 2 mps 648 mmHg 79%
    20:00 +17°C° 0 mm 2 mps 648 mmHg 87%
    21:00 +16°C° 0 mm 2 mps 648 mmHg 88%
    22:00 +16°C° 0 mm 2 mps 648 mmHg 89%
    23:00 +15°C° 0 mm 2 mps 648 mmHg 89%

    Day after tomorrow, 26 February, Wednesday

    Time Temperature Precipitation Wind Pressure Humidity
    00:00 +15°C° 0 mm 2 mps 648 mmHg 89%
    01:00 +15°C° 0 mm 2 mps 648 mmHg 88%
    02:00 +15°C° 0 mm 2 mps 648 mmHg 88%
    03:00 +15°C° 0 mm 2 mps 648 mmHg 87%
    04:00 +15°C° 0 mm 2 mps 648 mmHg 87%
    05:00 +15°C° 0 mm 2 mps 647 mmHg 87%
    06:00 +15°C° 0 mm 2 mps 648 mmHg 84%
    07:00 +16°C° 0 mm 2 mps 649 mmHg 82%
    08:00 +17°C° 0 mm 2 mps 650 mmHg 80%
    09:00 +20°C° 0 mm 2 mps 650 mmHg 69%
    10:00 +22°C° 0 mm 3 mps 651 mmHg 59%
    11:00 +26°C° 0 mm 3 mps 652 mmHg 49%
    12:00 +26°C° 0 mm 3 mps 651 mmHg 47%
    13:00 +27°C° 0 mm 4 mps 651 mmHg 46%
    14:00 +27°C° 0 mm 4 mps 650 mmHg 45%
    15:00 +26°C° 0 mm 4 mps 650 mmHg 49%
    16:00 +25°C° 0 mm 4 mps 649 mmHg 54%
    17:00 +23°C° 0 mm 4 mps 648 mmHg 58%
    18:00 +21°C° 0 mm 3 mps 648 mmHg 67%
    19:00 +19°C° 0 mm 3 mps 648 mmHg 75%
    20:00 +17°C° 0 mm 2 mps 648 mmHg 84%
    21:00 +16°C° 0 mm 2 mps 648 mmHg 84%
    22:00 +16°C° 0 mm 2 mps 648 mmHg 84%
    23:00 +15°C° 0 mm 2 mps 649 mmHg 84%

    27 February, Thursday

    Time Temperature Precipitation Wind Pressure Humidity
    00:00 +15°C° 0 mm 2 mps 648 mmHg 85%
    01:00 +15°C° 0 mm 2 mps 648 mmHg 87%
    02:00 +15°C° 0 mm 2 mps 648 mmHg 88%
    03:00 +15°C° 0 mm 2 mps 648 mmHg 88%
    04:00 +15°C° 0 mm 2 mps 648 mmHg 89%
    05:00 +14°C° 0 mm 2 mps 648 mmHg 90%
    06:00 +15°C° 0 mm 2 mps 648 mmHg 86%
    07:00 +16°C° 0 mm 2 mps 649 mmHg 83%
    08:00 +17°C° 0 mm 2 mps 650 mmHg 79%
    09:00 +20°C° 0 mm 2 mps 651 mmHg 69%
    10:00 +22°C° 0 mm 3 mps 651 mmHg 59%
    11:00 +25°C° 0 mm 3 mps 652 mmHg 50%
    12:00 +26°C° 0 mm 3 mps 652 mmHg 49%
    13:00 +26°C° 0 mm 4 mps 651 mmHg 49%
    14:00 +27°C° 0 mm 4 mps 650 mmHg 48%
    15:00 +26°C° 0 mm 4 mps 650 mmHg 52%
    16:00 +24°C° 0 mm 3 mps 649 mmHg 56%
    17:00 +22°C° 0 mm 3 mps 649 mmHg 60%
    18:00 +20°C° 0 mm 3 mps 648 mmHg 66%
    19:00 +18°C° 0 mm 2 mps 648 mmHg 73%
    20:00 +16°C° 0 mm 2 mps 648 mmHg 79%
    21:00 +15°C° 0 mm 2 mps 648 mmHg 80%
    22:00 +15°C° 0 mm 2 mps 649 mmHg 82%
    23:00 +14°C° 0 mm 1 mps 649 mmHg 83%

    28 February, Friday

    Time Temperature Precipitation Wind Pressure Humidity
    00:00 +14°C° 0 mm 2 mps 649 mmHg 85%
    01:00 +14°C° 0 mm 2 mps 648 mmHg 87%
    02:00 +14°C° 0 mm 2 mps 648 mmHg 89%
    03:00 +14°C° 0 mm 2 mps 648 mmHg 90%
    04:00 +14°C° 0 mm 2 mps 648 mmHg 92%
    05:00 +14°C° 0 mm 2 mps 648 mmHg 93%
    06:00 +15°C° 0 mm 2 mps 649 mmHg 90%
    07:00 +16°C° 0 mm 2 mps 649 mmHg 87%
    08:00 +17°C° 0 mm 2 mps 650 mmHg 84%
    09:00 +19°C° 0 mm 2 mps 651 mmHg 75%
    10:00 +21°C° 0 mm 3 mps 652 mmHg 66%
    11:00 +24°C° 0 mm 3 mps 652 mmHg 57%
    12:00 +24°C° 0 mm 3 mps 652 mmHg 56%
    13:00 +25°C° 0 mm 3 mps 651 mmHg 54%
    14:00 +25°C° 0 mm 3 mps 650 mmHg 53%
    15:00 +24°C° 0 mm 3 mps 650 mmHg 57%
    16:00 +22°C° 0 mm 3 mps 649 mmHg 61%
    17:00 +21°C° 0 mm 3 mps 649 mmHg 65%
    18:00 +20°C° 0 mm 3 mps 648 mmHg 71%
    19:00 +18°C° 0 mm 2 mps 648 mmHg 78%
    20:00 +16°C° 0 mm 2 mps 648 mmHg 85%
    21:00 +16°C° 0 mm 2 mps 648 mmHg 85%
    22:00 +15°C° 0 mm 2 mps 649 mmHg 86%
    23:00 +15°C° 0 mm 1 mps 649 mmHg 86%

    29 February, Saturday

    Time Temperature Precipitation Wind Pressure Humidity
    00:00 +14°C° 0 mm 1 mps 649 mmHg 87%
    01:00 +14°C° 0 mm 1 mps 648 mmHg 89%
    02:00 +14°C° 0 mm 1 mps 648 mmHg 90%
    03:00 +14°C° 0 mm 1 mps 648 mmHg 90%
    04:00 +14°C° 0 mm 2 mps 648 mmHg 91%
    05:00 +14°C° 0 mm 2 mps 648 mmHg 91%
    06:00 +15°C° 0 mm 2 mps 649 mmHg 88%
    07:00 +16°C° 0 mm 2 mps 650 mmHg 86%
    08:00 +17°C° 0 mm 2 mps 650 mmHg 83%
    09:00 +19°C° 0 mm 2 mps 651 mmHg 74%
    10:00 +21°C° 0 mm 3 mps 652 mmHg 65%
    11:00 +25°C° 0 mm 3 mps 652 mmHg 56%
    12:00 +25°C° 0.1 mm 3 mps 651 mmHg 58%
    13:00 +24°C° 0.1 mm 3 mps 651 mmHg 61%
    14:00 +24°C° 0.1 mm 3 mps 650 mmHg 63%
    15:00 +22°C° 0.1 mm 3 mps 649 mmHg 67%
    16:00 +22°C° 0.1 mm 3 mps 649 mmHg 72%
    17:00 +21°C° 0.1 mm 3 mps 648 mmHg 77%
    18:00 +20°C° 0 mm 2 mps 648 mmHg 82%
    19:00 +18°C° 0 mm 2 mps 648 mmHg 87%
    20:00 +17°C° 0 mm 2 mps 648 mmHg 92%
    21:00 +17°C° 0 mm 2 mps 648 mmHg 92%
    22:00 +16°C° 0 mm 2 mps 649 mmHg 92%
    23:00 +16°C° 0 mm 2 mps 649 mmHg 92%
    Show more